#timestamp,LO_Frequency,Hit,StdDev 
1546160415.3,286046998.5,N
1546160435.1,286046998.5,N
1546160455.9,286047000.5,N
1546160475.7,286047000.6,N
1546160495.5,286047000.8,N
1546160515.4,286046998.4,N
1546160535.2,286046999.6,N
1546160555.0,286046999.2,N
1546160556.0,286046999.2,N
1546160575.8,286046996.8,N
1546160595.6,286046998.8,N
1546160615.5,286047000.7,N
1546160635.3,286047000.7,N
1546160655.1,286046996.5,N
1546160675.9,286046997.1,N
1546160695.7,286046997.2,N
1546160715.6,286046997.8,N
1546160735.4,286046995.0,Y
1546160755.2,286046996.9,P
1546160775.1,286046999.3,N
1546160795.1,286046999.5,N
1546160815.9,286046997.0,N
1546160835.7,286046996.5,Y
1546160855.5,286047000.8,P
1546160875.4,286046998.6,N
1546160895.2,286047001.1,N
1546160915.0,286046998.6,N
1546160916.0,286046998.6,N
1546160935.8,286046999.6,N
1546160955.6,286046999.4,N
1546160975.5,286046996.9,Y
1546160995.3,286046999.2,P
1546161015.1,286046999.4,P
1546161035.9,286046999.5,P
1546161055.7,286046997.3,Y
1546161075.6,286046999.4,P
1546161095.4,286046996.9,P
1546161115.2,286046999.5,N
1546161135.1,286046998.4,N
1546161136.0,286046998.4,N
1546161155.8,286047000.8,N
1546161175.6,286047000.5,N
1546161195.5,286047000.8,N
1546161215.3,286046998.7,N
1546161235.2,286046998.2,N
1546161255.9,286046998.4,N
1546161275.7,286046997.6,N
1546161295.6,286046997.4,N
1546161315.4,286046997.3,N
1546161335.2,286046996.5,N
1546161355.1,286046999.2,N
1546161356.0,286046999.2,N
1546161375.8,286046998.4,N
1546161395.7,286046999.1,N
1546161415.6,286046997.0,N
1546161435.4,286046999.5,N
1546161455.2,286046997.3,N
1546161475.1,286046997.3,N
1546161476.0,286046997.3,N
1546161495.8,286046995.1,Y
1546161515.6,286046996.8,P
1546161535.5,286046997.1,P
1546161555.3,286046997.9,N
1546161575.2,286046997.3,Y
1546161595.9,286046999.4,P
1546161615.7,286046998.7,N
1546161635.6,286047001.1,N
1546161655.4,286046998.6,N
1546161675.2,286047000.4,N
1546161695.1,286046999.7,N
1546161696.0,286046999.7,N
1546161715.8,286047002.1,N
1546161735.7,286047000.5,N
1546161755.5,286047001.1,N
1546161775.3,286047000.0,N
1546161795.2,286047000.5,N
1546161815.0,286047000.6,N
1546161815.9,286047000.6,N
1546161835.8,286047000.3,N
1546161855.6,286046999.8,N
1546161875.4,286047000.9,N
1546161895.3,286046998.2,N
1546161915.1,286047000.7,N
1546161935.8,286047000.7,N
1546161955.7,286047001.1,N
1546161975.5,286047000.9,N
1546161995.4,286046998.8,N
1546162015.2,286046998.4,N
1546162035.0,286046998.9,N
1546162035.9,286046998.9,N
1546162055.8,286046997.0,N
1546162075.6,286046996.8,N
1546162095.5,286046995.5,Y
1546162115.3,286046996.0,P
1546162135.1,286046994.2,P
1546162155.9,286046995.8,N
1546162175.7,286046995.6,N
1546162195.5,286046996.0,N
1546162215.4,286046995.0,N
1546162235.2,286046995.8,N
1546162255.1,286046993.6,Y
1546162256.0,286046993.6,P
1546162275.8,286047001.2,N
1546162295.6,286046998.6,N
1546162315.5,286046998.7,N
1546162335.3,286046998.1,N
1546162355.1,286046998.6,N
1546162375.9,286046996.7,N
1546162395.7,286046996.9,N
1546162415.6,286046996.5,N
1546162435.4,286046997.0,N
1546162455.5,286046999.6,N
1546162475.3,286046996.5,N
1546162495.1,286046999.2,N
1546162515.9,286046996.5,N
1546162535.7,286046999.2,N
1546162555.5,286046994.9,N
1546162575.4,286046997.0,N
1546162595.2,286046997.4,N
1546162615.0,286046995.2,N
1546162616.0,286046995.2,N
1546162635.8,286046997.6,N
1546162655.6,286046999.5,N
1546162675.5,286046999.5,N
1546162695.3,286046998.4,N
1546162715.1,286046999.1,N
1546162735.9,286046996.9,N
1546162755.7,286046996.9,N
1546162775.5,286046999.2,N
1546162795.4,286046998.8,N
1546162815.2,286046998.5,N
1546162835.1,286046998.5,N
1546162836.0,286046998.5,N
1546162855.8,286046997.0,N
1546162875.6,286046999.4,N
1546162895.5,286046999.5,N
1546162915.3,286046996.6,N
1546162935.1,286046996.6,N
1546162955.9,286046998.8,N
1546162975.7,286046998.7,N
1546162995.6,286047011.9,Y
1546163015.4,286047004.3,P
1546163035.2,286047002.0,N
1546163055.1,286047002.7,N
1546163056.0,286047002.7,N
1546163075.8,286047002.7,N
1546163095.7,286047000.5,N
1546163115.5,286047000.8,N
1546163135.3,286047000.7,N
1546163155.2,286046999.9,N
1546163175.0,286047002.2,N
1546163175.9,286047002.2,N
1546163195.8,286047004.2,N
1546163215.6,286047003.5,N
1546163235.4,286047005.9,Y
1546163255.3,286047002.7,P
1546163275.1,286047002.8,P
1546163295.9,286047000.6,N
1546163315.2,286047002.4,N
1546163335.1,286047000.3,N
1546163336.0,286047000.3,N
1546163355.8,286046999.7,N
1546163375.7,286046999.8,N
1546163395.5,286047000.9,N
1546163415.3,286047000.9,N
1546163435.2,286047000.7,N
1546163455.0,286047000.2,N
1546163455.9,286047000.2,N
1546163475.7,286046998.1,N
1546163495.6,286046998.5,N
1546163515.4,286046998.5,N
1546163535.3,286046999.7,N
1546163555.1,286047002.2,N
1546163575.8,286047004.4,Y
1546163595.7,286047001.7,P
1546163615.5,286047002.3,P
1546163635.4,286047000.4,N
1546163655.2,286047000.2,N
1546163675.0,286047002.4,N
1546163675.9,286047002.4,N
1546163695.8,286047002.6,N
1546163715.6,286047001.8,N
1546163735.5,286047002.2,N
1546163755.3,286046999.7,N
1546163775.1,286047000.4,N
1546163795.9,286047001.5,N
1546163815.7,286047002.1,N
1546163835.6,286047003.9,Y
1546163855.4,286047002.6,P
1546163875.2,286047002.2,P
1546163895.1,286047002.7,P
1546163896.0,286047002.7,Y
1546163915.8,286046998.8,P
1546163935.7,286046999.6,N
1546163955.5,286046999.0,N
1546163975.3,286046999.4,N
1546163995.2,286046997.1,N
